Regional Weather Roundup
Issued by NWS Cleveland, OH

Home | Current Version | Previous Version | Graphics & Text | Print | Product List | Glossary On
Versions: 1 2 3 4 5 6 7 8 9 10 11 12 13 14 15 16 17 18 19 20 21 22 23 24 25 26 27 28 29 30 31 32 33 34 35 36 37 38 39 40 41 42 43 44 45 46 47 48 49 50
000
ASUS41 KCLE 030010
RWRCLE
OHIO REGIONAL WEATHER ROUNDUP
NATIONAL WEATHER SERVICE CLEVELAND, OH
700 PM EST FRI DEC 02 2016

NOTE: "FAIR" INDICATES FEW OR NO CLOUDS BELOW 12,000 FEET WITH NO
SIGNIFICANT WEATHER AND/OR OBSTRUCTIONS TO VISIBILITY.

OHZ001>008-015>018-024>027-034-035-043-044-030100-
   NORTHWEST OHIO

CITY           SKY/WX    TMP DP  RH WIND       PRES   REMARKS
DEFIANCE       CLOUDY    38  28  67 VRB7      30.22R
FINDLAY        CLOUDY    38  32  79 W8        30.19R
TOLEDO EXPRESS CLOUDY    37  29  72 W9        30.19R
TOLEDO EXEC    CLOUDY    39  30  70 W13       30.20R
LIMA           CLOUDY    38  31  76 W15       30.21R
$$

OHZ009>014-019>023-028>033-038-089-030100-
   NORTHEAST OHIO

CITY           SKY/WX    TMP DP  RH WIND       PRES   REMARKS
CLE-HOPKINS    CLOUDY    39  33  79 W8        30.17R
CLE-LAKEFRONT  CLOUDY    42  32  67 W21G30    30.13R
CUY CO. ARPT   CLOUDY    41  32  70 NW15G24   30.12R
LORAIN-ELYRIA  CLOUDY    38  30  73 NW13G23   30.16R
ASHTABULA      CLOUDY    39  30  70 W14G20    30.09R
AKRON-CANTON   CLOUDY    37  31  78 W13       30.13R
WOOSTER        CLOUDY    36  31  82 W12       30.15R
MANSFIELD      CLOUDY    37  31  78 W8G18     30.16R
YOUNGSTOWN     CLOUDY    36  33  89 W10       30.09R
$$

OHZ042-051>053-060>062-070>072-077>081-030100-
  SOUTHWEST OHIO

CITY           SKY/WX    TMP DP  RH WIND       PRES   REMARKS
CINC-COVINGTON CLOUDY    40  30  67 NW12      30.27R
CINC-LUNKEN    CLOUDY    41  31  67 NW9       30.29R
HAMILTON       CLOUDY    40  29  64 NW8       30.28R
DAYTON         CLOUDY    37  29  72 W10       30.24R
WRIGHT-PAT AFB CLOUDY    39  29  67 SW14      30.23S
DAYTON GENERAL CLOUDY    38  29  70 W6        30.24R
WILMINGTON     CLOUDY    38  30  73 W7        30.24R
$$

OHZ036-037-039>041-045>050-054>059-063>069-073>076-082>088-030100-
  CENTRAL AND SOUTHEAST OHIO

CITY           SKY/WX    TMP DP  RH WIND       PRES   REMARKS
COLUMBUS       CLOUDY    38  31  76 W14       30.21R
OSU AIRPORT    CLOUDY    38  31  76 W10       30.21R
BOLTON FIELD   CLOUDY    38  30  73 W7        30.23R
RICKENBACK AFB CLOUDY    38  31  76 W9        30.23R
NEWARK         CLOUDY    38  30  73 W8        30.20R
MARION         CLOUDY    38  31  76 W10       30.20R
LANCASTER      CLOUDY    38  32  79 W9        30.22R
ZANESVILLE     CLOUDY    38  31  76 W7        30.20R
NEW PHILLY     CLOUDY    38  31  76 W9        30.17R
$$




USA.gov is the U.S. government's official web portal to all federal, state and local government web resources and services.